[[{"header":{"parameterUnit":"m.s-1","parameterCategory":1,"la1":30.2991,"la2":30.254,"lo1":-89.0895,"lo2":-89.0444,"dy":0.0017,"dx":0.0017,"nx":28,"ny":28,"refTime":"2024-03-23T03:00:00:Z","depth":0,"parameterNumber":2,"parameterNumberName":"U-component_of_WINDS"},"data":[0,0,0,0,0,0,0,0,0,0,0,0,0,0,0,0,0,0,0,0,0,0,0,0,0,0,0,0,0,0,0,0,0,0,0,0,0,0,0,0,0,0,0,0,0,0,0,0,0,0,0,0,0,0,0,0,0,0,-5.0162,-5.0163,0,-5.0222,-5.0223,-5.0224,-5.0151,-5.0148,-5.0145,-5.0143,-5.0203,-5.0207,-5.0211,0,0,0,0,0,0,0,0,0,0,0,0,0,-4.9984,-4.9988,-5.0162,-5.0163,-5.0164,-5.0222,-5.0223,-5.0224,-5.0151,-5.0148,-5.0145,-5.0141,-5.0201,-5.0206,-5.0211,0,0,0,0,0,0,0,0,0,0,0,0,0,-5.0055,-4.9989,-5.0162,-5.0134,-5.0133,-5.0222,-5.0223,-5.0224,-5.0152,-5.0148,-5.0144,-5.014,-5.02,-5.0206,-5.0212,-5.0331,0,0,-5.0231,-5.0233,0,0,0,0,0,0,0,0,-5.0051,-5.0061,-5.0138,-5.0137,-5.0135,-5.0175,-5.0182,-5.026,-5.0153,-5.0144,-5.0143,-5.0138,-5.0197,-5.0203,-5.0223,-5.0334,-5.0336,-5.0231,-5.0235,-5.0238,-5.0239,0,0,0,0,0,0,0,-5.0046,-5.0058,-5.0186,-5.0139,-5.0137,-5.0119,-5.0125,-5.0197,-5.0192,-5.0145,-5.014,-5.0148,-5.0195,-5.0217,-5.0224,-5.0337,-5.0231,-5.0237,-5.024,-5.0243,-5.0549,-5.0553,0,0,0,0,0,0,-5.0044,-5.0055,-5.0184,-5.0188,-5.0082,-5.0126,-5.0132,-5.0166,-5.0191,-5.0192,-5.0151,-5.0144,-5.0209,-5.0217,-5.0226,-5.0366,-5.0238,-5.0243,-5.0247,-5.0545,-5.055,-5.0555,0,0,0,0,0,0,-5.0041,-5.0057,-5.0181,-5.012,-5.0134,-5.0133,-5.0172,-5.0169,-5.0191,-5.0196,-5.0195,-5.0175,-5.0206,-5.0217,-5.0305,-5.0367,-5.0246,-5.0252,-5.0539,-5.0546,-5.0552,-5.0648,0,0,0,0,0,0,-5.0036,-5.0056,-5.0101,-5.0121,-5.0138,-5.0261,-5.0176,-5.0173,-5.0202,-5.0194,-5.0218,-5.0218,-5.0203,-5.0297,-5.0312,-5.0373,-5.0257,-5.0534,-5.0542,-5.055,-5.0639,-5.0657,-5.0672,0,0,0,0,0,-5.003,-5.0125,-5.0103,-5.0119,-5.0194,-5.0264,-5.0274,-5.0255,-5.0208,-5.0253,-5.0256,-5.0217,-5.0359,-5.0306,-5.0323,-5.0387,-5.053,-5.054,-5.055,-5.0632,-5.0654,-5.0672,0,0,0,0,0,0,-5.0111,-5.0127,-5.0103,-5.0208,-5.0235,-5.0252,-5.0308,-5.0279,-5.032,-5.031,-5.0285,-5.0291,-5.0385,-5.0395,-5.0337,-5.0504,-5.0436,-5.045,-5.0493,-5.0514,-5.053,-5.0525,-5.0262,0,0,0,0,0,-5.0141,-5.0197,-5.0208,-5.0299,-5.0314,-5.0309,-5.0339,-5.0323,-5.035,-5.0361,-5.0371,-5.0398,-5.0449,-5.0482,-5.0529,-5.0642,-5.0645,-5.0694,-5.0711,-5.0724,-5.0736,-5.0796,-5.0817,-5.0587,-5.0587,-5.0587,0,0,-5.0203,-5.0219,-5.0255,-5.0316,-5.0335,-5.0393,-5.0319,-5.0383,-5.0426,-5.037,-5.0454,-5.0463,-5.0492,-5.0593,-5.0638,-5.0604,-5.0801,-5.0737,-5.0748,-5.0752,-5.0808,-5.083,-5.0849,-5.0594,-5.0593,-5.0592,0,0,-5.0346,-5.0364,-5.0442,-5.0463,-5.0494,-5.049,-5.0509,-5.0531,-5.0535,-5.0619,-5.0578,-5.0629,-5.0717,-5.0739,-5.0762,-5.0917,-5.0882,-5.0933,-5.1018,-5.1077,-5.1095,-5.1111,-5.1165,-5.1184,-5.0945,-5.0945,-5.0945,0,-5.0419,-5.0504,-5.0485,-5.0553,-5.058,-5.0535,-5.0613,-5.0635,-5.0679,-5.0699,-5.0661,-5.0771,-5.0787,-5.0893,-5.0931,-5.0952,-5.0972,-5.0928,-5.1094,-5.111,-5.1124,-5.1175,-5.1196,-5.0951,-5.095,-5.0949,-5.0949,0,-5.0593,-5.0653,-5.0712,-5.0757,-5.0792,-5.0864,-5.0856,-5.0894,-5.0876,-5.0876,-5.0963,-5.0982,-5.1032,-5.1056,-5.1039,-5.116,-5.1138,-5.1098,-5.1029,-5.1152,-5.12,-5.1219,-5.0959,-5.0957,-5.0955,-5.0954,0,0,-5.0784,-5.0819,-5.0841,-5.0861,-5.0893,-5.0939,-5.101,-5.106,-5.1092,-5.1126,-5.1184,-5.1261,-5.1224,-5.125,-5.1236,-5.1288,-5.1408,-5.1241,-5.1241,-5.127,-5.1541,-5.1569,-5.1592,-5.1386,-5.139,-5.1393,-5.1538,0,-5.0926,-5.1049,-5.1035,-5.1152,-5.1208,-5.1166,-5.1228,-5.1255,-5.1258,-5.1306,-5.1309,-5.1363,-5.1312,-5.1327,-5.1377,-5.1382,-5.1461,-5.1372,-5.1439,-5.1442,-5.1431,-5.1617,-5.1647,-5.1783,-5.1557,-5.156,-5.1562,0,-5.1107,-5.1147,-5.127,-5.1294,-5.1317,-5.1373,-5.1417,-5.1464,-5.1493,-5.1492,-5.1523,-5.15,-5.1571,-5.1504,-5.1602,-5.1542,-5.1569,-5.1576,-5.1581,-5.1584,-5.1508,-5.1624,-5.1826,-5.1846,-5.1592,-5.1589,-5.1587,0,-5.1232,-5.1318,-5.1402,-5.1421,-5.1451,-5.1492,-5.1506,-5.1532,-5.1563,-5.1603,-5.1622,-5.167,-5.1696,-5.1733,-5.1723,-5.1675,-5.1824,-5.1755,-5.1824,-5.1824,-5.1854,-5.1852,-5.2062,-5.1877,-5.1876,-5.1876,-5.1875,0,-5.139,-5.1467,-5.1459,-5.1511,-5.1596,-5.158,-5.1664,-5.1674,-5.1697,-5.175,-5.1718,-5.1769,-5.1754,-5.1804,-5.1797,-5.1879,-5.1891,-5.1892,-5.1889,-5.1893,-5.1893,-5.1909,-5.1898,-5.1881,-5.188,-5.1879,-5.1878,0,-5.1543,-5.1541,-5.163,-5.1653,-5.1661,-5.1722,-5.1741,-5.179,-5.1792,-5.186,-5.1875,-5.1878,-5.1935,-5.193,-5.1994,-5.199,-5.2091,-5.2077,-5.208,-5.2077,-5.2145,-5.2138,-5.237,-5.2399,-5.2197,-5.2199,-5.2201,0,-5.1643,-5.1701,-5.173,-5.1763,-5.1781,-5.1835,-5.1867,-5.1855,-5.1889,-5.1929,-5.1973,-5.2028,-5.207,-5.2164,-5.2172,-5.2221,-5.2207,-5.2286,-5.2214,-5.2217,-5.2206,-5.2202,-5.2207,-5.2298,-5.2301,-5.2303,-5.2304,0,-5.1819,-5.1816,-5.1863,-5.1911,-5.195,-5.1987,-5.2021,-5.205,-5.2041,-5.2082,-5.214,-5.2174,-5.224,-5.2295,-5.2342,-5.2357,-5.2329,-5.2327,-5.2345,-5.2349,-5.2348,-5.2348,-5.2116,-5.2321,-5.2319,-5.2318,-5.2317,-5.2316,-5.1947,-5.1997,-5.2025,-5.2079,-5.2104,-5.2137,-5.2184,-5.2192,-5.2241,-5.2294,-5.2285,-5.235,-5.238,-5.244,-5.2461,-5.2512,-5.2483,-5.251,-5.2516,-5.2523,-5.253,-5.2342,-5.2521,-5.252,-5.252,-5.2519,-5.2519,0,-5.212,-5.2137,-5.2188,-5.2236,-5.2279,-5.2251,-5.2287,-5.2325,-5.2383,-5.2413,-5.2456,-5.2524,-5.2578,-5.2591,-5.2642,-5.2681,-5.2669,-5.2694,-5.269,-5.2694,-5.2553,-5.2531,-5.2703,-5.2703,-5.2703,-5.2703,-5.2702,-5.2702,-5.2215,-5.2297,-5.2298,-5.2393,-5.2409,-5.2474,-5.2497,-5.2527,-5.2551,-5.2628,-5.2672,-5.2681,-5.2705,-5.2758,-5.2805,-5.2808,-5.2827,-5.2857,-5.2855,-5.2722,-5.2704,-5.2686,-5.2665,-5.2862,-5.2862,-5.2991,-5.2992,-5.2993]},{"header":{"parameterUnit":"m.s-1","parameterCategory":1,"la1":30.2991,"la2":30.254,"lo1":-89.0895,"lo2":-89.0444,"dy":0.0017,"dx":0.0017,"nx":28,"ny":28,"refTime":"2024-03-23T03:00:00:Z","depth":0,"parameterNumber":3,"parameterNumberName":"V-component_of_WINDS"},"data":[0,0,0,0,0,0,0,0,0,0,0,0,0,0,0,0,0,0,0,0,0,0,0,0,0,0,0,0,0,0,0,0,0,0,0,0,0,0,0,0,0,0,0,0,0,0,0,0,0,0,0,0,0,0,0,0,0,0,3.7606,3.7605,0,3.7571,3.757,3.757,3.7499,3.7498,3.7496,3.7495,3.7459,3.746,3.746,0,0,0,0,0,0,0,0,0,0,0,0,0,3.7612,3.7613,3.7606,3.7605,3.7605,3.7571,3.757,3.757,3.75,3.7498,3.7496,3.7494,3.7459,3.7459,3.746,0,0,0,0,0,0,0,0,0,0,0,0,0,3.7597,3.7613,3.7606,3.7566,3.7562,3.7571,3.757,3.757,3.75,3.7498,3.7496,3.7494,3.7459,3.7459,3.746,3.7505,0,0,3.7462,3.7462,0,0,0,0,0,0,0,0,3.7598,3.7597,3.7572,3.7568,3.7564,3.7537,3.7559,3.7548,3.75,3.7523,3.7495,3.7493,3.7487,3.7485,3.7483,3.7504,3.7502,3.7462,3.7462,3.7462,3.7462,0,0,0,0,0,0,0,3.7599,3.7598,3.7592,3.7572,3.7567,3.755,3.7545,3.7557,3.7517,3.7521,3.7516,3.7513,3.7484,3.7483,3.7482,3.7502,3.7462,3.7462,3.7462,3.7463,3.7559,3.7561,0,0,0,0,0,0,3.7606,3.7599,3.7593,3.7591,3.7576,3.7551,3.7546,3.7548,3.7517,3.751,3.7515,3.751,3.7483,3.7481,3.748,3.7532,3.7462,3.7463,3.7463,3.7557,3.756,3.7562,0,0,0,0,0,0,3.7606,3.7606,3.7594,3.7594,3.7591,3.7553,3.7556,3.7548,3.7547,3.7512,3.7505,3.752,3.7481,3.7479,3.75,3.7529,3.7463,3.7463,3.7554,3.7558,3.7561,3.7635,0,0,0,0,0,0,3.7607,3.7606,3.7623,3.7594,3.7591,3.7615,3.7558,3.7549,3.7548,3.7541,3.7515,3.7509,3.7479,3.75,3.7501,3.7529,3.7464,3.7552,3.7556,3.756,3.763,3.7641,3.765,0,0,0,0,0,3.7607,3.7645,3.7624,3.7624,3.7611,3.7616,3.7614,3.7579,3.755,3.7567,3.7545,3.751,3.7527,3.7502,3.7503,3.7532,3.7549,3.7555,3.756,3.7625,3.7639,3.765,0,0,0,0,0,0,3.7677,3.764,3.7617,3.7646,3.7635,3.7604,3.7624,3.7594,3.7591,3.7585,3.7541,3.7536,3.7563,3.7549,3.7523,3.7575,3.7532,3.7538,3.7582,3.7595,3.7604,3.7607,3.7464,0,0,0,0,0,3.7696,3.7704,3.7671,3.7701,3.7696,3.7662,3.7663,3.7637,3.7623,3.7618,3.7597,3.7586,3.7588,3.7591,3.7591,3.7628,3.7622,3.7649,3.7659,3.7667,3.7672,3.7691,3.7703,3.7579,3.7579,3.7579,0,0,3.7735,3.7716,3.7723,3.7714,3.7702,3.7711,3.7658,3.7669,3.7676,3.762,3.7638,3.7623,3.7607,3.7636,3.7648,3.7626,3.7705,3.7674,3.7681,3.7681,3.7698,3.771,3.772,3.7582,3.7582,3.7581,0,0,3.7811,3.7797,3.7821,3.781,3.7793,3.777,3.7776,3.7751,3.7738,3.7756,3.7715,3.7722,3.7727,3.7718,3.7714,3.7789,3.7757,3.7791,3.7842,3.7862,3.7872,3.788,3.7907,3.7917,3.7796,3.7796,3.7796,0,3.7862,3.7873,3.7836,3.7851,3.7848,3.7799,3.7823,3.7815,3.7799,3.7799,3.7774,3.7781,3.7766,3.7793,3.7812,3.781,3.7816,3.7793,3.7873,3.7881,3.7889,3.7914,3.7924,3.78,3.78,3.7799,3.7799,0,3.7937,3.7946,3.7967,3.7953,3.7953,3.7972,3.7939,3.7943,3.7918,3.7898,3.7918,3.79,3.7896,3.7901,3.7876,3.7925,3.7911,3.7881,3.7837,3.7905,3.7928,3.7938,3.7806,3.7805,3.7803,3.7802,0,0,3.8054,3.8021,3.8029,3.8023,3.8002,3.8008,3.8026,3.8023,3.8028,3.8019,3.8033,3.804,3.8012,3.8008,3.7982,3.7999,3.806,3.7966,3.7966,3.7985,3.8114,3.8136,3.8148,3.804,3.8041,3.8043,3.8115,0,3.8124,3.8152,3.812,3.8155,3.8163,3.8117,3.8133,3.8122,3.8104,3.8109,3.809,3.8095,3.8058,3.8055,3.807,3.805,3.8086,3.8044,3.8052,3.8053,3.8057,3.816,3.8183,3.8252,3.8124,3.8125,3.8126,0,3.821,3.8206,3.8242,3.822,3.8222,3.8236,3.8231,3.8237,3.8224,3.821,3.8206,3.8176,3.8192,3.8151,3.8173,3.8146,3.8148,3.8138,3.814,3.8139,3.8093,3.8161,3.8273,3.8284,3.814,3.8139,3.8138,0,3.8292,3.8296,3.8318,3.8314,3.8289,3.83,3.829,3.8275,3.8276,3.8272,3.8272,3.8271,3.827,3.8269,3.8239,3.8212,3.8266,3.8222,3.8255,3.8256,3.8267,3.8267,3.8381,3.827,3.8269,3.8269,3.8269,0,3.8374,3.8397,3.8354,3.8368,3.8393,3.8357,3.8383,3.8369,3.8357,3.8367,3.8328,3.8338,3.8299,3.8305,3.8282,3.8305,3.8305,3.8294,3.8287,3.8297,3.8299,3.8297,3.8291,3.8272,3.8271,3.8271,3.827,0,3.8469,3.8441,3.8462,3.8437,3.8431,3.8451,3.843,3.8442,3.8422,3.8436,3.8437,3.8407,3.8413,3.8384,3.8384,3.8369,3.8403,3.8388,3.8407,3.8402,3.8437,3.8434,3.8554,3.8568,3.8448,3.8449,3.845,0,3.8522,3.854,3.8517,3.8521,3.8513,3.8521,3.8521,3.8487,3.849,3.8478,3.8491,3.8494,3.8494,3.8506,3.8484,3.8485,3.847,3.8512,3.847,3.848,3.8471,3.847,3.8472,3.8521,3.8522,3.8523,3.8524,0,3.8621,3.8607,3.8609,3.8608,3.861,3.8607,3.8601,3.8607,3.857,3.8575,3.8581,3.8582,3.8583,3.8587,3.8583,3.8573,3.8543,3.8538,3.8546,3.8556,3.8566,3.8561,3.8431,3.8535,3.8534,3.8533,3.8533,3.8532,3.8696,3.871,3.8697,3.8701,3.8694,3.869,3.87,3.8682,3.8687,3.8685,3.8665,3.8675,3.8663,3.8656,3.8649,3.8657,3.8637,3.8648,3.8651,3.8654,3.866,3.8565,3.8656,3.8656,3.8655,3.8655,3.8655,0,3.8793,3.8782,3.8787,3.8781,3.8785,3.8757,3.875,3.8755,3.8764,3.8756,3.8758,3.8765,3.8769,3.8748,3.8749,3.876,3.8746,3.8761,3.876,3.8758,3.8678,3.8671,3.8772,3.8772,3.8772,3.8772,3.8772,3.8772,3.8843,3.8865,3.885,3.8868,3.8857,3.8866,3.8865,3.8861,3.8855,3.8865,3.8868,3.8855,3.8842,3.8842,3.8845,3.8838,3.8841,3.8861,3.885,3.8775,3.8764,3.8753,3.8746,3.8862,3.8862,3.8929,3.893,3.8931]}]]